Weather Roundup
Issued by NWS Chicago, IL

Home | Current Version | Previous Version | Text Only | Print | Product List | Glossary Off
Versions: 1 2 3 4 5 6 7 8 9 10 11 12 13 14 15 16 17 18 19 20 21 22 23 24 25 26 27 28 29 30 31 32 33 34 35 36 37 38 39 40 41 42 43 44 45 46 47 48 49 50

000
NZUS59 KLOT 162206
HRRLOT

CHICAGO AREA WEATHER ROUNDUP
NATIONAL WEATHER SERVICE CHICAGO/ROMEOVILLE IL
500 PM CDT WED APR 16 2014

NOTE: "FAIR" INDICATES FEW OR NO CLOUDS BELOW 12,000 FEET WITH NO
SIGNIFICANT WEATHER AND/OR OBSTRUCTIONS TO VISIBILITY.

* THESE STATIONS ARE NOT UNDER NWS QUALITY CONTROL. THEY ALSO MAY NOT
  REPORT WEATHER SUCH AS PRECIPITATION OR FOG.

ILZ005-006-012>014-019>023-162300-
NORTHEAST ILLINOIS

CITY           SKY/WX    TMP DP  RH WIND       PRES   REMARKS
OHARE          PTSUNNY   52  24  33 SE22G30   30.14F
MIDWAY         PTSUNNY   51  23  33 SE20G29   30.16F
AURORA         MOSUNNY   53  27  36 SE22G31   30.11F
LANSING*       SUNNY     50  24  36 SE16G25   30.18F
JOLIET*        SUNNY     52  22  31 SE15G24   30.14F
WAUKEGAN       MOSUNNY   44  28  53 SE20G30   30.14F
DUPAGE AIRPORT MOSUNNY   53  25  33 S20G32    30.12F
WHEELING       MOSUNNY   52  25  35 SE16G25   30.15F
KANKAKEE*      SUNNY     52  27  37 SE20G25   30.17S
MORRIS*        MOSUNNY   54  19  24 SE22G30   30.12F
NORTHERLY IS     N/A     49  30  48 SE21        N/A
$$

WIZ051-052-058>065-066-070>072-162300-
SOUTHEAST WISCONSIN

CITY           SKY/WX    TMP DP  RH WIND       PRES   REMARKS
MILWAUKEE      PTSUNNY   42  26  53 SE24G33   30.17F
KENOSHA*       MOSUNNY   46  26  45 SE22G31   30.15F
RACINE*        MOSUNNY   43  27  53 SE21G28   30.18F
BURLINGTON     MOSUNNY   50  26  38 SE18G24   30.11F
WAUKESHA       MOSUNNY   45  27  49 SE20G28   30.13F
$$

INZ001>003-010>013-019-020-162300-
NORTHWEST INDIANA

CITY           SKY/WX    TMP DP  RH WIND       PRES   REMARKS
GARY*          MOSUNNY   52  21  30 SE17G36   30.18F
MICHIGAN CITY* NOT AVBL
RENSSELAER*    NOT AVBL
VALPARAISO     SUNNY     49  20  31 SE17G28   30.20F
$$

LMZ740>746-162300-
SOUTHERN LAKE MICHIGAN

STATION/POSITION TIME  SKY/WX   TEMP WIND        PRES    VSBY
                                AIR  DIR/SP/G
                 (UTC)          (F)  (DEG/KT/KT) (MB)    (MI)
HARRISON CRIB    2200            45  140/ 17/ 21   N/A
BURNHAM HARBOR   2200            49  140/ 19/ 21   N/A
CALUMET HARBOR   2200            49  140/ 19/ 24 1022.4F
BURNS HARBOR     NOT AVBL
MICHIGAN CITY    2200            48  110/ 17/ 22   N/A
$$

ABBREVIATIONS USED IN REMARKS
   TC - TEMPERATURE IN CELSIUS
  WCI - WIND CHILL INDEX
   HX - HEAT INDEX
  VSB - VISIBILITY
$$



USA.gov is the U.S. government's official web portal to all federal, state and local government web resources and services.